This is the latest recevied weather packets stored in our database for station/object KJ4EBE. If no packets are shown the sender has not sent any weather packets the latest 10 day(s).
| Time | Temp. | Humidity | Pressure | Rain* | Wind** | Luminosity | Snow |
|---|---|---|---|---|---|---|---|
| 1777824628 | 25° C | 46% | 1022.4 hPa | 0 mm | - | 706 W/m² | - |
| 1777824325 | 23.89° C | 47% | 1022.4 hPa | 0 mm | - | 695 W/m² | - |
| 1777824021 | 23.89° C | 47% | 1022.5 hPa | 0 mm | - | 685 W/m² | - |
| 1777823717 | 25° C | 51% | 1022.3 hPa | 0 mm | - | 677 W/m² | - |
| 1777823414 | 23.89° C | 49% | 1022.4 hPa | 0 mm | - | 666 W/m² | - |
| 1777823112 | 23.89° C | 51% | 1022.2 hPa | 0 mm | - | 653 W/m² | - |
| 1777822809 | 23.89° C | 52% | 1022.3 hPa | 0 mm | - | 641 W/m² | - |
| 1777822507 | 23.33° C | 52% | 1022.3 hPa | 0 mm | - | 634 W/m² | - |
| 1777822204 | 23.33° C | 52% | 1022.2 hPa | 0 mm | - | 619 W/m² | - |
| 1777821902 | 22.78° C | 53% | 1022.3 hPa | 0 mm | - | 606 W/m² | - |
| 1777821599 | 22.78° C | 55% | 1022.4 hPa | 0 mm | - | 591 W/m² | - |
| 1777821298 | 22.78° C | 55% | 1022.3 hPa | 0 mm | - | 566 W/m² | - |
| 1777820994 | 23.33° C | 53% | 1022.3 hPa | 0 mm | - | 562 W/m² | - |
| 1777820685 | 23.89° C | 55% | 1022.3 hPa | 0 mm | - | 545 W/m² | - |
| 1777820381 | 23.33° C | 58% | 1022.5 hPa | 0 mm | - | 534 W/m² | - |
| 1777820078 | 22.78° C | 53% | 1022.5 hPa | 0 mm | - | 515 W/m² | - |
| 1777819775 | 21.67° C | 58% | 1022.4 hPa | 0 mm | - | 491 W/m² | - |
| 1777819474 | 21.67° C | 57% | 1022.2 hPa | 0 mm | - | 483 W/m² | - |
| 1777819171 | 21.67° C | 59% | 1022.3 hPa | 0 mm | - | 471 W/m² | - |
| 1777818867 | 21.67° C | 56% | 1022.1 hPa | 0 mm | - | 455 W/m² | - |
| 1777818563 | 21.67° C | 56% | 1022.4 hPa | 0 mm | - | 439 W/m² | - |
| 1777818261 | 21.67° C | 56% | 1022.3 hPa | 0 mm | - | 424 W/m² | - |
| 1777817957 | 21.67° C | 58% | 1022.1 hPa | 0 mm | - | 410 W/m² | - |
| 1777817654 | 21.11° C | 59% | 1022.2 hPa | 0 mm | - | 395 W/m² | - |
| 1777817351 | 20.56° C | 61% | 1022.2 hPa | 0 mm | - | 380 W/m² | - |
* Rain latest hour (hover to see other rain measurements)
** Current wind speed in m/s (hover to see current wind gust speed)